Hourly Data Report for September 06, 2016

SHEARWATER RCS
NOVA SCOTIA

44°37'47.000" N
63°30'48.000" W
24.00 m
8205092
71264
AAW

Download Data

Hourly Data (September 2016)
Hourly Data Report for September 6, 2016
TIME Temp Definition
°C
Dew Point Definition
°C
Rel Hum Definition
%
Wind Dir Definition
10's deg

Wind Spd Definition
km/h
Visibility Definition
km
Stn Press Definition
kPa
Hmdx Definition


Wind Chill Definition


Weather Definition


00:00 18.6 17.0 90 9 9   102.06     LegendNANA
01:00 18.9 17.7 93 8 9   101.99     LegendNANA
02:00 19.4 18.1 92 12 10   101.95     LegendNANA
03:00 19.8 18.5 92 12 15   101.91     LegendNANA
04:00 19.5 18.4 93 13 9   101.89     LegendNANA
05:00 19.2 18.1 94 12 1   101.85     LegendNANA
06:00 19.8 18.9 94 3 5   101.90     LegendNANA
07:00 20.0 19.1 95 6 6   101.92 27   LegendNANA
08:00 20.5 19.6 95 6 5   101.94 28   LegendNANA
09:00 21.0 20.1 95 6 5   101.96 29   LegendNANA
10:00 21.0 20.0 94 15 6   102.00 29   LegendNANA
11:00 21.7 20.3 92 18 6   102.00 30   LegendNANA
12:00 21.5 19.6 89 18 7   101.96 29   LegendNANA
13:00 21.3 19.8 92 15 7   101.93 29   LegendNANA
14:00 20.8 19.7 93 14 6   101.90 28   LegendNANA
15:00 20.6 19.6 94 18 5   101.88 28   LegendNANA
16:00 21.1 20.0 94 15 7   101.84 29   LegendNANA
17:00 20.6 19.6 94 15 8   101.87 28   LegendNANA
18:00 20.5 19.6 95 14 5   101.87 28   LegendNANA
19:00 20.3 19.5 95 14 5   101.88 27   LegendNANA
20:00 20.3 19.6 95 10 1   101.95 28   LegendNANA
21:00 20.0 19.2 96 16 7   101.96 27   LegendNANA
22:00 20.0 19.3 96 15 5   101.97 27   LegendNANA
23:00 19.8 19.1 96 17 6   101.93     LegendNANA

Notes on Data Quality.

Legend

  • E = Estimated
  • M = Missing
  • NA = Not Available*
  • [empty] = Indicates an unobserved value
Date modified: